Location: Cabeza Gorda
(40.0667°N, 4.9667°W)
Time: 20:16:41
(UTC+00:00)

COSMO-SKYMED 1 - Pass Details

Date: 15 January 2026
Orbit: 578 x 579 km, 97.9° (Epoch: 11 February)

Event Time Altitude Azimuth Distance (km) Brightness Sun altitude
Rises 05:41:23 0° 160° (SSE) 2,783 6.3 -22.3°
Reaches altitude 10° 05:43:32 10° 158° (SSE) 1,888 5.4 -21.9°
Maximum altitude 05:47:36 68° 75° (ENE) 628 2.7 -21.1°
Enters shadow 05:50:49 16° 355° (N) 1,549 4.4 -20.5°
